This is the latest recevied weather packets stored in our database for station/object KC9Q. If no packets are shown the sender has not sent any weather packets the latest 10 day(s).
| Time | Temp. | Humidity | Pressure | Rain* | Wind** | Luminosity | Snow |
|---|---|---|---|---|---|---|---|
| 1777442214 | 17.78° C | 99% | 1009.4 hPa | 0 mm | - | 0 W/m² | - |
| 1777441909 | 17.78° C | 99% | 1009.4 hPa | 0.51 mm | - | 0 W/m² | - |
| 1777441605 | 17.78° C | 99% | 1009.4 hPa | 0.51 mm | - | 0 W/m² | - |
| 1777441301 | 17.78° C | 99% | 1009.6 hPa | 1.27 mm | - | 0 W/m² | - |
| 1777440996 | 17.78° C | 99% | 1009.4 hPa | 1.27 mm | - | 0 W/m² | - |
| 1777440693 | 17.78° C | 99% | 1009.6 hPa | 3.05 mm | - | 0 W/m² | - |
| 1777440388 | 17.78° C | 99% | 1009.4 hPa | 3.56 mm | - | 0 W/m² | - |
| 1777440085 | 17.78° C | 99% | 1009.7 hPa | 4.32 mm | - | 0 W/m² | - |
| 1777439780 | 17.78° C | 99% | 1009.5 hPa | 6.1 mm | - | 0 W/m² | - |
| 1777439477 | 17.78° C | 99% | 1009.5 hPa | 7.11 mm | - | 0 W/m² | - |
| 1777439177 | 17.78° C | 99% | 1009.6 hPa | 6.1 mm | - | 0 W/m² | - |
| 1777438875 | 17.78° C | 99% | 1009.7 hPa | 1.78 mm | - | 0 W/m² | - |
| 1777438571 | 17.78° C | 99% | 1009.6 hPa | 1.27 mm | - | 0 W/m² | - |
| 1777438268 | 17.78° C | 99% | 1009.2 hPa | 0.51 mm | - | 0 W/m² | - |
| 1777437963 | 17.78° C | 99% | 1009 hPa | 0 mm | - | 0 W/m² | - |
| 1777437660 | 17.78° C | 99% | 1009.2 hPa | 0 mm | - | 0 W/m² | - |
| 1777437356 | 17.78° C | 99% | 1009.1 hPa | 0 mm | - | 0 W/m² | - |
| 1777437052 | 17.78° C | 99% | 1009.3 hPa | 0 mm | - | 0 W/m² | - |
| 1777436749 | 17.78° C | 99% | 1009.2 hPa | 0 mm | - | 0 W/m² | - |
| 1777436445 | 17.22° C | 99% | 1009.2 hPa | 0 mm | - | 0 W/m² | - |
| 1777436142 | 17.22° C | 99% | 1009.4 hPa | 0 mm | - | 0 W/m² | - |
| 1777435839 | 17.22° C | 99% | 1009.4 hPa | 0 mm | - | 0 W/m² | - |
| 1777435534 | 17.22° C | 99% | 1009.3 hPa | 0 mm | - | 0 W/m² | - |
| 1777435231 | 17.22° C | 99% | 1009.6 hPa | 0 mm | - | 0 W/m² | - |
| 1777434929 | 17.22° C | 99% | 1009.7 hPa | 0 mm | - | 0 W/m² | - |
* Rain latest hour (hover to see other rain measurements)
** Current wind speed in m/s (hover to see current wind gust speed)